[[{"header":{"parameterUnit":"m.s-1","parameterCategory":1,"la1":30.2991,"la2":30.254,"lo1":-89.0895,"lo2":-89.0444,"dy":0.0017,"dx":0.0017,"nx":28,"ny":28,"refTime":"2025-11-23T03:00:00:Z","depth":0,"parameterNumber":2,"parameterNumberName":"U-component_of_WINDS"},"data":[0,0,0,0,0,0,0,0,0,0,0,0,0,0,0,0,0,0,0,0,0,0,0,0,0,0,0,0,0,0,0,0,0,0,0,0,0,0,0,0,0,0,0,0,0,0,0,0,0,0,0,0,0,0,0,0,0,0,-3.0698,-3.0698,0,-3.0724,-3.0725,-3.0725,-3.0617,-3.0614,-3.0611,-3.0608,-3.0637,-3.0641,-3.0645,0,0,0,0,0,0,0,0,0,0,0,0,0,-3.0557,-3.056,-3.0698,-3.0698,-3.0699,-3.0724,-3.0725,-3.0725,-3.0618,-3.0614,-3.061,-3.0606,-3.0636,-3.064,-3.0645,0,0,0,0,0,0,0,0,0,0,0,0,0,-3.0605,-3.0561,-3.0698,-3.0648,-3.0644,-3.0724,-3.0725,-3.0725,-3.0618,-3.0614,-3.0609,-3.0604,-3.0634,-3.064,-3.0645,-3.0776,0,0,-3.0663,-3.0665,0,0,0,0,0,0,0,0,-3.0602,-3.061,-3.0655,-3.0652,-3.0647,-3.0662,-3.0686,-3.0742,-3.062,-3.0628,-3.0608,-3.0602,-3.065,-3.0654,-3.0669,-3.0777,-3.0778,-3.0663,-3.0667,-3.0669,-3.0671,0,0,0,0,0,0,0,-3.0599,-3.0608,-3.0708,-3.0656,-3.0651,-3.0625,-3.0627,-3.0696,-3.0666,-3.0627,-3.0619,-3.0624,-3.0647,-3.0664,-3.0669,-3.0779,-3.0663,-3.0668,-3.0672,-3.0674,-3.0995,-3.1,0,0,0,0,0,0,-3.0602,-3.0606,-3.0708,-3.0709,-3.0612,-3.0632,-3.0633,-3.0662,-3.0664,-3.066,-3.0628,-3.0619,-3.0657,-3.0663,-3.067,-3.0822,-3.0669,-3.0674,-3.0677,-3.099,-3.0996,-3.1002,0,0,0,0,0,0,-3.0599,-3.0612,-3.0707,-3.0656,-3.0666,-3.0639,-3.0673,-3.0665,-3.0683,-3.0665,-3.0659,-3.0651,-3.0653,-3.0662,-3.075,-3.0822,-3.0677,-3.0682,-3.0984,-3.0992,-3.0999,-3.1129,0,0,0,0,0,0,-3.0596,-3.0612,-3.066,-3.0657,-3.0669,-3.0786,-3.0677,-3.0669,-3.0692,-3.0681,-3.0685,-3.0681,-3.065,-3.0742,-3.0756,-3.0827,-3.0686,-3.0977,-3.0988,-3.0997,-3.1118,-3.114,-3.1159,0,0,0,0,0,-3.0591,-3.0696,-3.0663,-3.0676,-3.0729,-3.0791,-3.0797,-3.0758,-3.0699,-3.0748,-3.0736,-3.0681,-3.0812,-3.0752,-3.0766,-3.0841,-3.0973,-3.0985,-3.0996,-3.1109,-3.1136,-3.1159,0,0,0,0,0,0,-3.0709,-3.0695,-3.0658,-3.0766,-3.078,-3.0772,-3.0833,-3.0788,-3.082,-3.0808,-3.0759,-3.0761,-3.0858,-3.0858,-3.0792,-3.0967,-3.0882,-3.0897,-3.0963,-3.0989,-3.1009,-3.1007,-3.0691,0,0,0,0,0,-3.0748,-3.0798,-3.0783,-3.088,-3.0889,-3.086,-3.0885,-3.0854,-3.0867,-3.0873,-3.0868,-3.0883,-3.0928,-3.0958,-3.0998,-3.1118,-3.1117,-3.1176,-3.1196,-3.1213,-3.1227,-3.129,-3.1316,-3.104,-3.104,-3.104,0,0,-3.0828,-3.0826,-3.0861,-3.0903,-3.0911,-3.0965,-3.0866,-3.0927,-3.0967,-3.0882,-3.0965,-3.0962,-3.0976,-3.1081,-3.1127,-3.1084,-3.1303,-3.1228,-3.1241,-3.1246,-3.1305,-3.1331,-3.1354,-3.1048,-3.1046,-3.1045,0,0,-3.1002,-3.1006,-3.1086,-3.1095,-3.1108,-3.1088,-3.1107,-3.1106,-3.1101,-3.1183,-3.1121,-3.1168,-3.1245,-3.1258,-3.1275,-3.1454,-3.1404,-3.1468,-3.1575,-3.1637,-3.1659,-3.1678,-3.1742,-3.1766,-3.1482,-3.1482,-3.1482,0,-3.11,-3.1178,-3.1134,-3.1199,-3.122,-3.1145,-3.1226,-3.1238,-3.1263,-3.1279,-3.1231,-3.1326,-3.1331,-3.1437,-3.1481,-3.1497,-3.1518,-3.1467,-3.1659,-3.1678,-3.1695,-3.1756,-3.178,-3.149,-3.1489,-3.1488,-3.1487,0,-3.1299,-3.1354,-3.1418,-3.1443,-3.1471,-3.1544,-3.1511,-3.1545,-3.1511,-3.1497,-3.1582,-3.1584,-3.1623,-3.1646,-3.1615,-3.1749,-3.1722,-3.1668,-3.1581,-3.173,-3.1786,-3.1809,-3.1501,-3.1498,-3.1496,-3.1494,0,0,-3.1547,-3.1547,-3.1571,-3.1582,-3.159,-3.1632,-3.1703,-3.174,-3.177,-3.179,-3.1848,-3.1915,-3.1865,-3.1884,-3.1853,-3.1908,-3.2049,-3.1846,-3.1845,-3.1884,-3.2198,-3.2239,-3.2266,-3.2017,-3.2021,-3.2024,-3.2196,0,-3.1718,-3.1837,-3.1799,-3.192,-3.1971,-3.1901,-3.1962,-3.1974,-3.1963,-3.2004,-3.1992,-3.204,-3.197,-3.1981,-3.2032,-3.2021,-3.2112,-3.2008,-3.2071,-3.2074,-3.2069,-3.2295,-3.2339,-3.2501,-3.2218,-3.2222,-3.2224,0,-3.1932,-3.196,-3.2086,-3.2086,-3.2105,-3.2161,-3.2192,-3.2233,-3.2246,-3.2233,-3.2255,-3.2213,-3.2282,-3.2196,-3.2291,-3.2222,-3.2245,-3.2244,-3.2249,-3.2254,-3.2158,-3.2306,-3.2552,-3.2577,-3.2258,-3.2256,-3.2253,0,-3.2101,-3.217,-3.2254,-3.2266,-3.2267,-3.2308,-3.2311,-3.2318,-3.2344,-3.2371,-3.2387,-3.2423,-3.2443,-3.2472,-3.2441,-3.2381,-3.2541,-3.2452,-3.2534,-3.2535,-3.2571,-3.2569,-3.2824,-3.2586,-3.2586,-3.2585,-3.2585,0,-3.2295,-3.2375,-3.233,-3.2382,-3.247,-3.2426,-3.2514,-3.2509,-3.2516,-3.2566,-3.2508,-3.2557,-3.2512,-3.2557,-3.2533,-3.2616,-3.2626,-3.2618,-3.2611,-3.2623,-3.2624,-3.2638,-3.2626,-3.2592,-3.259,-3.2589,-3.2588,0,-3.2499,-3.2472,-3.2559,-3.2553,-3.2554,-3.2619,-3.2614,-3.2662,-3.2646,-3.2711,-3.2723,-3.2699,-3.2749,-3.272,-3.2771,-3.2755,-3.2863,-3.284,-3.2859,-3.2853,-3.2935,-3.2928,-3.3208,-3.3243,-3.2983,-3.2986,-3.2988,0,-3.2625,-3.2684,-3.2685,-3.2714,-3.272,-3.2768,-3.2793,-3.2752,-3.2781,-3.28,-3.2846,-3.289,-3.2923,-3.3006,-3.2994,-3.3032,-3.301,-3.3106,-3.3016,-3.3026,-3.3012,-3.3009,-3.3014,-3.3124,-3.3127,-3.313,-3.3132,0,-3.285,-3.2834,-3.2872,-3.2906,-3.2937,-3.2962,-3.2982,-3.301,-3.2969,-3.3004,-3.3054,-3.308,-3.3131,-3.3176,-3.3209,-3.3213,-3.3166,-3.316,-3.3181,-3.3194,-3.3202,-3.3199,-3.2908,-3.3154,-3.3152,-3.315,-3.3149,-3.3148,-3.3019,-3.3068,-3.3077,-3.3121,-3.3132,-3.3152,-3.3197,-3.3186,-3.3227,-3.3265,-3.3239,-3.3298,-3.3309,-3.3348,-3.3358,-3.3404,-3.3365,-3.3396,-3.3403,-3.3411,-3.3423,-3.3195,-3.341,-3.3409,-3.3408,-3.3408,-3.3407,0,-3.3241,-3.3243,-3.3284,-3.3314,-3.3349,-3.3301,-3.3321,-3.3354,-3.3406,-3.342,-3.3454,-3.3511,-3.3555,-3.3546,-3.3585,-3.3624,-3.3603,-3.3635,-3.3632,-3.3634,-3.3455,-3.3433,-3.3651,-3.3651,-3.3651,-3.3651,-3.3651,-3.3651,-3.3361,-3.3443,-3.3428,-3.3515,-3.3516,-3.3572,-3.3588,-3.3606,-3.3617,-3.3683,-3.3719,-3.3712,-3.3718,-3.3757,-3.3795,-3.3791,-3.3808,-3.3848,-3.3837,-3.367,-3.3646,-3.3623,-3.3602,-3.3853,-3.3853,-3.4012,-3.4013,-3.4014]},{"header":{"parameterUnit":"m.s-1","parameterCategory":1,"la1":30.2991,"la2":30.254,"lo1":-89.0895,"lo2":-89.0444,"dy":0.0017,"dx":0.0017,"nx":28,"ny":28,"refTime":"2025-11-23T03:00:00:Z","depth":0,"parameterNumber":3,"parameterNumberName":"V-component_of_WINDS"},"data":[0,0,0,0,0,0,0,0,0,0,0,0,0,0,0,0,0,0,0,0,0,0,0,0,0,0,0,0,0,0,0,0,0,0,0,0,0,0,0,0,0,0,0,0,0,0,0,0,0,0,0,0,0,0,0,0,0,0,-0.5477,-0.5476,0,-0.5397,-0.5397,-0.5396,-0.5365,-0.5365,-0.5366,-0.5366,-0.528,-0.5278,-0.5276,0,0,0,0,0,0,0,0,0,0,0,0,0,-0.5595,-0.5593,-0.5477,-0.5476,-0.5475,-0.5398,-0.5397,-0.5395,-0.5365,-0.5365,-0.5366,-0.5366,-0.5281,-0.5278,-0.5275,0,0,0,0,0,0,0,0,0,0,0,0,0,-0.5532,-0.5592,-0.5477,-0.545,-0.5447,-0.5398,-0.5396,-0.5395,-0.5365,-0.5365,-0.5366,-0.5366,-0.5282,-0.5279,-0.5275,-0.5245,0,0,-0.5263,-0.5262,0,0,0,0,0,0,0,0,-0.5536,-0.5528,-0.5455,-0.5452,-0.5448,-0.5392,-0.5407,-0.5345,-0.5365,-0.5396,-0.5366,-0.5366,-0.5317,-0.531,-0.5294,-0.5241,-0.5237,-0.5263,-0.5261,-0.5259,-0.5258,0,0,0,0,0,0,0,-0.554,-0.5531,-0.5445,-0.5454,-0.545,-0.544,-0.5432,-0.5395,-0.5355,-0.5393,-0.5391,-0.5382,-0.5315,-0.5298,-0.5292,-0.5236,-0.5263,-0.526,-0.5258,-0.5256,-0.5149,-0.5149,0,0,0,0,0,0,-0.555,-0.5535,-0.5448,-0.5443,-0.5494,-0.5438,-0.5428,-0.5409,-0.5356,-0.5348,-0.5382,-0.5381,-0.5304,-0.5297,-0.5289,-0.5248,-0.5259,-0.5256,-0.5254,-0.515,-0.5149,-0.5149,0,0,0,0,0,0,-0.5553,-0.5542,-0.5451,-0.5488,-0.5476,-0.5435,-0.5414,-0.5408,-0.5391,-0.5347,-0.5339,-0.5373,-0.5304,-0.5294,-0.5255,-0.5245,-0.5254,-0.5251,-0.5151,-0.515,-0.5149,-0.5167,0,0,0,0,0,0,-0.5556,-0.5544,-0.5534,-0.5488,-0.5474,-0.5421,-0.5414,-0.5406,-0.5385,-0.5383,-0.5336,-0.5329,-0.5304,-0.5261,-0.5252,-0.524,-0.5248,-0.5151,-0.515,-0.5149,-0.5168,-0.5167,-0.5167,0,0,0,0,0,-0.556,-0.5542,-0.5533,-0.5523,-0.5461,-0.542,-0.5412,-0.5385,-0.5384,-0.5372,-0.5344,-0.533,-0.5248,-0.5258,-0.5247,-0.5233,-0.5152,-0.5151,-0.5149,-0.5168,-0.5167,-0.5167,0,0,0,0,0,0,-0.5586,-0.5535,-0.5525,-0.5492,-0.5461,-0.5415,-0.54,-0.5386,-0.5353,-0.5353,-0.5319,-0.5308,-0.5272,-0.5249,-0.5261,-0.5199,-0.5199,-0.5195,-0.5216,-0.5215,-0.5215,-0.5221,-0.5245,0,0,0,0,0,-0.5588,-0.5561,-0.5517,-0.5492,-0.5476,-0.5441,-0.5422,-0.5404,-0.537,-0.5356,-0.5325,-0.529,-0.5256,-0.5235,-0.5201,-0.5164,-0.5151,-0.5149,-0.5149,-0.5149,-0.5146,-0.5121,-0.5119,-0.5144,-0.5144,-0.5144,0,0,-0.5591,-0.556,-0.5545,-0.5496,-0.547,-0.544,-0.543,-0.54,-0.5377,-0.5351,-0.5312,-0.5288,-0.5247,-0.5208,-0.5189,-0.5187,-0.5136,-0.5147,-0.5147,-0.5144,-0.5119,-0.5117,-0.5115,-0.5143,-0.5144,-0.5144,0,0,-0.5581,-0.5556,-0.5531,-0.5505,-0.5465,-0.5441,-0.5435,-0.5391,-0.5374,-0.5334,-0.5313,-0.5284,-0.5228,-0.5198,-0.5176,-0.5153,-0.5138,-0.5142,-0.5141,-0.5117,-0.5115,-0.5113,-0.5102,-0.5099,-0.514,-0.514,-0.514,0,-0.559,-0.5547,-0.552,-0.549,-0.5468,-0.5443,-0.5416,-0.5391,-0.5342,-0.5326,-0.5325,-0.5251,-0.5222,-0.5174,-0.5168,-0.5152,-0.5141,-0.5148,-0.5118,-0.5116,-0.5113,-0.5102,-0.5099,-0.514,-0.514,-0.514,-0.514,0,-0.5558,-0.5528,-0.5512,-0.5466,-0.5442,-0.5413,-0.5379,-0.5357,-0.5341,-0.5316,-0.5274,-0.5238,-0.5196,-0.5183,-0.5166,-0.5132,-0.5132,-0.5125,-0.5123,-0.5112,-0.5101,-0.5097,-0.5141,-0.5141,-0.5141,-0.5141,0,0,-0.5564,-0.5502,-0.5496,-0.5474,-0.5427,-0.5402,-0.537,-0.533,-0.5311,-0.5277,-0.5248,-0.5199,-0.5191,-0.5166,-0.5145,-0.5125,-0.5105,-0.512,-0.5118,-0.5116,-0.5061,-0.5066,-0.5062,-0.5095,-0.5094,-0.5093,-0.5064,0,-0.5547,-0.5493,-0.5466,-0.5422,-0.5392,-0.5367,-0.5339,-0.5306,-0.5281,-0.525,-0.5222,-0.5187,-0.5181,-0.5165,-0.5143,-0.5112,-0.5093,-0.5114,-0.5065,-0.5064,-0.5075,-0.5057,-0.5063,-0.5037,-0.506,-0.5059,-0.5059,0,-0.5522,-0.5488,-0.5441,-0.5395,-0.5382,-0.5358,-0.5316,-0.5288,-0.5248,-0.5231,-0.5202,-0.5181,-0.5144,-0.5145,-0.5092,-0.5107,-0.5085,-0.5066,-0.5064,-0.5058,-0.506,-0.5049,-0.5029,-0.5024,-0.5052,-0.5053,-0.5053,0,-0.5528,-0.5472,-0.5436,-0.5417,-0.5363,-0.5346,-0.5323,-0.5283,-0.526,-0.5223,-0.5206,-0.5165,-0.5142,-0.511,-0.5077,-0.5081,-0.5026,-0.5025,-0.5009,-0.501,-0.4998,-0.4999,-0.4973,-0.4986,-0.4986,-0.4986,-0.4987,0,-0.5512,-0.5484,-0.5438,-0.5416,-0.5382,-0.535,-0.5317,-0.5291,-0.5255,-0.5225,-0.5201,-0.5173,-0.5132,-0.5098,-0.5072,-0.503,-0.5021,-0.5004,-0.4997,-0.5006,-0.5007,-0.499,-0.4991,-0.4985,-0.4986,-0.4986,-0.4986,0,-0.5515,-0.5483,-0.5441,-0.5393,-0.538,-0.5357,-0.5314,-0.529,-0.5263,-0.5226,-0.5215,-0.5172,-0.513,-0.5094,-0.504,-0.5022,-0.4978,-0.4971,-0.4992,-0.4988,-0.4973,-0.4974,-0.4934,-0.4926,-0.4946,-0.4946,-0.4946,0,-0.5506,-0.5484,-0.5433,-0.5412,-0.5389,-0.5355,-0.533,-0.5296,-0.5271,-0.5222,-0.5203,-0.516,-0.5123,-0.5057,-0.502,-0.4976,-0.4967,-0.4955,-0.496,-0.4968,-0.4964,-0.4965,-0.4961,-0.4955,-0.4955,-0.4955,-0.4955,0,-0.5494,-0.5479,-0.5445,-0.5405,-0.5376,-0.5343,-0.5308,-0.5291,-0.525,-0.5223,-0.518,-0.5152,-0.5095,-0.5051,-0.5003,-0.4976,-0.4957,-0.4954,-0.4947,-0.4955,-0.4968,-0.4958,-0.499,-0.4955,-0.4955,-0.4955,-0.4955,-0.4955,-0.549,-0.5468,-0.5428,-0.539,-0.536,-0.5328,-0.5302,-0.5271,-0.5236,-0.5188,-0.5169,-0.5125,-0.5081,-0.5015,-0.4988,-0.495,-0.4948,-0.4939,-0.4937,-0.4935,-0.4935,-0.4974,-0.4942,-0.4942,-0.4942,-0.4942,-0.4942,0,-0.5475,-0.5447,-0.5413,-0.5365,-0.5334,-0.5321,-0.5281,-0.5255,-0.5217,-0.518,-0.5144,-0.5093,-0.5049,-0.5007,-0.4961,-0.4939,-0.4929,-0.4928,-0.4928,-0.4922,-0.4941,-0.495,-0.4936,-0.4936,-0.4936,-0.4936,-0.4936,-0.4936,-0.5463,-0.5425,-0.5404,-0.5348,-0.532,-0.5278,-0.5256,-0.5224,-0.5194,-0.5138,-0.5102,-0.5076,-0.5035,-0.4985,-0.4943,-0.4931,-0.4914,-0.4915,-0.4901,-0.492,-0.4921,-0.4922,-0.493,-0.4912,-0.4912,-0.4884,-0.4884,-0.4884]}]]